Rogers, AR

4:29 PM CDT on April 25, 2018 (GMT -0500)
Rogers Municipal-Carter

Weather History for KROG - November, 2013

Change the Weather History Date:

Tuesday, November 5, 2013

  Actual Average Record
Temperature  
Mean Temperature 58 °F -  
Max Temperature 62 °F 58 °F 82 °F (2017)
Min Temperature 53 °F 42 °F 30 °F (2010)
Degree Days  
Heating Degree Days 8    
Growing Degree Days 8 (Base 50)    
Moisture  
Dew Point 55 °F    
Average Humidity 91    
Maximum Humidity 96    
Minimum Humidity 82    
Precipitation  
Precipitation 0.48 in - - ()
Sea Level Pressure  
Sea Level Pressure 30.07 in    
Wind  
Wind Speed 10 mph (SE)    
Max Wind Speed 15 mph    
Max Gust Speed 21 mph    
Visibility 9 miles    
Events Rain    
Averages and records for this station are not official NWS values.
T = Trace of Precipitation, MM = Missing Value Source: NWS Daily Summary

Daily Weather History Graph

Daily Weather History Graph

Search for Another Location

Airport or City:

Astronomy

Nov. 05, 2013 Rise Set
Actual Time 6:43 AM CST 5:15 PM CST
Civil Twilight 6:16 AM CST 5:42 PM CST
Nautical Twilight 5:46 AM CST 6:13 PM CST
Astronomical Twilight 5:16 AM CST 6:43 PM CST
Moon 8:57 AM CST (11/5) 7:20 PM CST (11/5)
Length of Visible Light 11h 25m
Length of Day
10h 32m
Waxing Crescent, 7% of the Moon is Illuminated
Nov 5
Waxing Crescent
Nov 9
First Quarter
Nov 17
Full
Nov 25
Last Quarter
Dec 2
New

Hourly Weather History & Observations

Time (CST) Temp. Dew Point Humidity Pressure Visibility Wind Dir Wind Speed Gust Speed Precip Events Conditions
12:30 AM 53.6 °F 51.8 °F 94% 30.16 in 7.0 mi SE 9.2 mph - 0.01 in Rain Light Rain
12:57 AM 53.1 °F 52.0 °F 96% 30.15 in 8.0 mi ESE 6.9 mph - 0.02 in Rain Light Rain
1:05 AM 53.6 °F 51.8 °F 94% 30.16 in 6.0 mi ESE 8.1 mph - 0.00 in Rain Light Rain
1:08 AM 53.6 °F 51.8 °F 94% 30.16 in 7.0 mi ESE 9.2 mph - 0.00 in Rain Light Rain
1:17 AM 53.6 °F 51.8 °F 94% 30.16 in 6.0 mi SE 9.2 mph - 0.01 in Rain Light Rain
1:22 AM 53.6 °F 51.8 °F 94% 30.16 in 5.0 mi SE 9.2 mph - 0.01 in Rain Light Rain
1:35 AM 53.6 °F 51.8 °F 94% 30.16 in 6.0 mi SE 9.2 mph - 0.03 in Rain Light Rain
1:57 AM 54.0 °F 52.0 °F 93% 30.14 in 8.0 mi SE 10.4 mph - 0.07 in Rain Rain
2:47 AM 53.6 °F 51.8 °F 94% 30.15 in 10.0 mi SE 9.2 mph - 0.04 in Rain Light Rain
2:57 AM 54.0 °F 52.0 °F 93% 30.14 in 9.0 mi SE 11.5 mph - 0.05 in Rain Rain
3:24 AM 53.6 °F 51.8 °F 94% 30.14 in 8.0 mi SE 9.2 mph - 0.05 in Rain Rain
3:57 AM 54.0 °F 52.0 °F 93% 30.14 in 9.0 mi SE 8.1 mph - 0.10 in Rain Rain
4:57 AM 54.0 °F 52.0 °F 93% 30.14 in 8.0 mi SE 8.1 mph - N/A Rain Rain
5:10 AM 53.6 °F 51.8 °F 94% 30.15 in 7.0 mi SE 8.1 mph - 0.03 in Rain Rain
5:13 AM 53.6 °F 51.8 °F 94% 30.15 in 7.0 mi SE 6.9 mph - 0.03 in Rain Rain
5:38 AM 53.6 °F 51.8 °F 94% 30.15 in 9.0 mi ESE 6.9 mph - 0.05 in Rain Light Rain
5:49 AM 53.6 °F 51.8 °F 94% 30.14 in 9.0 mi ESE 6.9 mph - 0.05 in Rain Light Rain
5:57 AM 54.0 °F 52.0 °F 93% 30.14 in 10.0 mi ESE 5.8 mph - 0.06 in Rain Light Rain
6:02 AM 53.6 °F 51.8 °F 94% 30.14 in 10.0 mi ESE 6.9 mph - 0.00 in Rain Light Rain
6:24 AM 53.6 °F 51.8 °F 94% 30.14 in 10.0 mi ESE 6.9 mph - 0.00 in Rain Light Rain
6:57 AM 54.0 °F 52.0 °F 93% 30.13 in 10.0 mi ESE 8.1 mph - 0.00 in Rain Light Rain
7:04 AM 53.6 °F 51.8 °F 94% 30.14 in 9.0 mi ESE 9.2 mph - 0.01 in Rain Light Rain
7:57 AM 55.0 °F 53.1 °F 93% 30.13 in 7.0 mi ESE 10.4 mph - 0.03 in Rain Light Rain
8:28 AM 55.4 °F 53.6 °F 94% 30.14 in 4.0 mi ESE 8.1 mph - 0.02 in Rain Light Rain
8:44 AM 55.4 °F 53.6 °F 94% 30.14 in 4.0 mi ESE 9.2 mph - 0.06 in Rain Rain
8:49 AM 55.4 °F 53.6 °F 94% 30.13 in 6.0 mi ESE 8.1 mph - 0.06 in Rain Light Rain
8:57 AM 55.0 °F 54.0 °F 96% 30.12 in 10.0 mi ESE 9.2 mph - 0.06 in Rain Light Rain
9:16 AM 55.4 °F 53.6 °F 94% 30.12 in 10.0 mi East 10.4 mph - 0.00 in   Overcast
9:57 AM 57.0 °F 55.0 °F 93% 30.12 in 10.0 mi SE 10.4 mph - 0.01 in Rain Light Rain
10:57 AM 57.2 °F 55.4 °F 94% 30.11 in 7.0 mi SE 9.2 mph - 0.01 in Rain Light Rain
10:59 AM 57.9 °F 55.9 °F 93% 30.10 in 7.0 mi SE 6.9 mph - 0.01 in Rain Light Rain
11:02 AM 57.2 °F 55.4 °F 94% 30.11 in 8.0 mi SE 8.1 mph - 0.00 in Rain Light Rain
11:57 AM 59.0 °F 55.4 °F 88% 30.08 in 10.0 mi SE 12.7 mph 20.7 mph 0.01 in Rain Light Rain
11:59 AM 59.0 °F 55.4 °F 88% 30.08 in 10.0 mi SSE 13.8 mph 20.7 mph 0.01 in Rain Light Rain
12:01 PM 59.0 °F 55.9 °F 90% 30.07 in 10.0 mi SSE 12.7 mph 20.7 mph 0.01 in Rain Light Rain
12:08 PM 57.2 °F 55.4 °F 94% 30.08 in 10.0 mi SSE 15.0 mph 20.7 mph 0.00 in Rain Light Rain
12:57 PM 59.0 °F 55.9 °F 90% 30.04 in 10.0 mi SSE 11.5 mph - 0.00 in   Overcast
1:22 PM 59.0 °F 55.4 °F 88% 30.04 in 10.0 mi SE 15.0 mph 19.6 mph N/A   Overcast
1:57 PM 59.0 °F 55.9 °F 90% 30.02 in 10.0 mi SE 9.2 mph - 0.00 in Rain Light Rain
2:02 PM 59.0 °F 55.4 °F 88% 30.03 in 10.0 mi SSE 11.5 mph - 0.00 in Rain Light Rain
2:57 PM 61.0 °F 55.9 °F 83% 30.00 in 10.0 mi SE 13.8 mph 20.7 mph 0.00 in   Overcast
3:57 PM 61.0 °F 55.9 °F 83% 30.00 in 10.0 mi SSE 15.0 mph - N/A   Overcast
4:19 PM 60.8 °F 55.4 °F 82% 30.02 in 10.0 mi SSE 11.5 mph - N/A   Overcast
4:57 PM 60.1 °F 57.0 °F 90% 30.00 in 10.0 mi SSE 11.5 mph - N/A   Overcast
5:33 PM 60.8 °F 57.2 °F 88% 30.01 in 10.0 mi SSE 10.4 mph - N/A   Overcast
5:37 PM 60.8 °F 57.2 °F 88% 30.01 in 10.0 mi SSE 12.7 mph - N/A   Overcast
5:42 PM 60.8 °F 57.2 °F 88% 30.01 in 10.0 mi SSE 11.5 mph - N/A   Overcast
5:57 PM 60.1 °F 57.0 °F 90% 29.99 in 10.0 mi SE 13.8 mph - 0.00 in Rain Light Rain
6:01 PM 60.8 °F 57.2 °F 88% 30.00 in 10.0 mi SE 12.7 mph - 0.00 in Rain Light Rain
6:26 PM 60.8 °F 57.2 °F 88% 30.01 in 10.0 mi SSE 13.8 mph - 0.00 in   Overcast
6:39 PM 60.8 °F 57.2 °F 88% 30.01 in 10.0 mi SE 13.8 mph - 0.00 in   Overcast
6:51 PM 60.8 °F 57.2 °F 88% 30.02 in 10.0 mi SSE 10.4 mph - 0.00 in   Overcast
6:57 PM 60.1 °F 57.0 °F 90% 30.00 in 10.0 mi SE 11.5 mph - 0.00 in   Overcast
7:19 PM 60.8 °F 57.2 °F 88% 30.00 in 10.0 mi SE 13.8 mph - N/A   Overcast
7:34 PM 60.8 °F 57.2 °F 88% 30.00 in 10.0 mi SE 11.5 mph - 0.00 in Rain Light Rain
7:57 PM 61.0 °F 57.9 °F 90% 29.99 in 10.0 mi SSE 9.2 mph 18.4 mph 0.01 in Rain Rain
8:14 PM 60.8 °F 57.2 °F 88% 29.98 in 10.0 mi SSE 12.7 mph - 0.03 in Rain Light Rain
8:51 PM 60.8 °F 57.2 °F 88% 30.00 in 10.0 mi South 10.4 mph - 0.04 in   Overcast
8:57 PM 61.0 °F 57.9 °F 90% 29.99 in 10.0 mi SSE 12.7 mph - 0.04 in   Overcast
9:08 PM 60.8 °F 57.2 °F 88% 29.99 in 10.0 mi SSE 15.0 mph - N/A   Overcast
9:57 PM 62.1 °F 59.0 °F 90% 29.97 in 10.0 mi SSE 13.8 mph - N/A   Overcast
10:16 PM 62.6 °F 59.0 °F 88% 29.99 in 10.0 mi South 12.7 mph - 0.00 in Rain Light Rain
10:30 PM 62.6 °F 59.0 °F 88% 29.98 in 10.0 mi SSE 15.0 mph - 0.00 in   Mostly Cloudy
10:36 PM 62.6 °F 59.0 °F 88% 29.98 in 10.0 mi SSE 11.5 mph 20.7 mph 0.00 in   Mostly Cloudy
10:57 PM 62.1 °F 59.0 °F 90% 29.97 in 10.0 mi South 11.5 mph - 0.00 in   Overcast
11:05 PM 62.6 °F 59.0 °F 88% 29.98 in 10.0 mi SSE 11.5 mph - N/A   Overcast
11:28 PM 62.6 °F 59.0 °F 88% 29.98 in 10.0 mi SSE 15.0 mph - N/A   Overcast
11:57 PM 61.0 °F 59.0 °F 93% 29.95 in 10.0 mi SSE 12.7 mph - 0.01 in Rain Light Rain